Back to catalog

ORBCOMM FM 13

AliveCommunicationsLEO
NORAD 25420·PAYLOAD·🇺🇸 United States

Launched Aug 2, 1998 from Cape Canaveral Space Force Station

Loading…

Next Passes (next 24 hours)

TLE

FreshSource: Space-Track

Epoch: Sep 13, 2026, 20:48 UTC

1 25420U 98046H   26256.86728218  .00000605  00000-0  24104-3 0  9998
2 25420  44.9962 192.0815 0005882  17.4217 342.6832 14.38753351468556

Track ORBCOMM FM 13 in real time with AllMySat

Download on the App Store